Find Starlink 34327

NORAD ID: 64208 Int'l Des: 2025-117 Owner: SPXS Country: US Constellation: starlink operational
LEOCIRCULAR

現在のビュー

3D地球を読み込み中...

About Starlink 34327

Starlink 34327 (NORAD 64208) is a starlink constellation satellite (v2 mini) launched May 31, 2025 by SPXS of US. It operates in LEO, CIRCULAR orbit with a mass of 575.00 kg.

次回通過

Passes for default location (London). Set your location on the main map for personalized predictions.

高度履歴

Loading altitude history...

軌道要素

1 64208U 25117F 26265.55633974 .00010096 00000-0 30957-3 0 9992
2 64208 53.1595 203.9903 0001326 87.4977 272.6177 15.34395025 73649
Epoch: Sep 22, 2026 • Age: 19 hours

現在のステータス

高度 463.9 km
遠地点 / 近地点 N/A
速度 7.64 km/s
衛星直下点 30.35°N, 99.76°E
打ち上げ日 May 31, 2025
運用期間 1.3 years
タイプ internet

技術仕様

分類 Payload
質量 575.00 kg
乾燥質量 530.00 kg
長さ 0.30 m
スパン 29.00 m
形状 ? Box + pan
製造者 SPXS
バスタイプ Starlink V2MO
フェーズステータス In Orbit
所有者/国 SPXS/US

Most Searched